SBGRSBCG

Guest
Details From SBGR - Sao Paulo - Guarulhos
To SBCG - Campo Grande
Flight Number -
Tags Generated
Created
Modified
Stats Distance 490 nm / 908 km
Max Altitude 0 ft / 0 m
Waypoints 4
Social Downloads 3
Likes 0
Share VATSIM

Download

Looking for another format? Having issues loading an existing format? Contact us
Advertisement - Login to hide

Notes

Generated

Route

SBGR TUP CGR SBCG

ID Type Via Altitude Latitude Longitude Leg Dist Tot Dist Heading (true) Name
O SBGR APT - 0 ft / 0 m -23.43891˚ -46.48745˚ - 0 nm - -
TUP NDB - 0 ft / 0 m -21.89383˚ -50.50217˚ 241 nm 241 nm 292° / 293° TUPA NDB
CGR VOR - 0 ft / 0 m -20.46883˚ -54.67033˚ 248 nm 489 nm 289° / 291° CAMPO GRANDE VOR-DME
O SBCG APT - 0 ft / 0 m -20.47754˚ -54.68069˚ 0 nm 490 nm 228° / 228° -

Altitude Profile

Advertisement - Login to hide

Weather


0- 5 10 15 20 25 30 35+ Temperature / ° C

Clouds and Precipitation
Forecast for 2018-05-26 18:00 UTC. Updated an hour ago

Ground ~20,000 ft ~40,000 ft Winds

SBGR

Details ICAO SBGR (GRU)
Name Sao Paulo - Guarulhos
Region Brazil
Timezone America/Sao_Paulo (UTC-3.0)
Stats Elevation 2,459 ft / 750 m (AMSL)
Location -23.432333° -46.469675°
Runways 2
Magnetic Variation 21.467° W

METAR

SBGR 261800Z 10004KT 9999 SCT035 22/14 Q1022

Decode

TAF

TAF SBGR 261011Z 2612/2718 07005KT 8000 BKN012TN13/2707Z TX22/2717Z BECMG 2613/2615 9999 FEW030 BECMG 2616/2618 15010KT BECMG 2621/2623 BKN013 BECMG 2700/2702 08002KT 8000 FEW015 PROB30 2707/2711 4000 BR BKN008 BECMG 2712/2714 12005KT 9999 SCT030 RMK PGN

Decode

Departure Runways

ID Width Length Bearing (true) Bearing (mag) Surface Threshold Offset Overrun Length
09L 148 ft / 45 m 12,676 ft / 3,864 m 73.61° 95.08° Asphalt 495 ft / 151 m 0 ft / 0 m
09R 148 ft / 45 m 9,950 ft / 3,033 m 73.60° 95.07° Asphalt 0 ft / 0 m 197 ft / 60 m
27L 148 ft / 45 m 9,950 ft / 3,033 m 253.59° 275.06° Asphalt 0 ft / 0 m 197 ft / 60 m
27R 148 ft / 45 m 12,676 ft / 3,864 m 253.60° 275.07° Asphalt 197 ft / 60 m 0 ft / 0 m

SBCG

Details ICAO SBCG (CGR)
Name Campo Grande
Region Brazil
Timezone America/Campo_Grande (UTC-4.0)
Stats Elevation 1,833 ft / 559 m (AMSL)
Location -20.468666° -54.672500°
Runways 1
Magnetic Variation 17.604° W

METAR

SBCG 261800Z 15005KT 9999 FEW045 29/15 Q1016

Decode

TAF

TAF SBCG 260915Z 2612/2712 08009KT CAVOK TX30/2618Z TN18/2708Z BECMG 2613/2615 05010KT 9999 FEW035 BECMG 2620/2622 08008KT CAVOK RMK PCX

Decode

Destination Runways

ID Width Length Bearing (true) Bearing (mag) Surface Threshold Offset Overrun Length
06 141 ft / 43 m 8,563 ft / 2,610 m 40.84° 58.44° Asphalt 0 ft / 0 m 192 ft / 59 m
24 141 ft / 43 m 8,563 ft / 2,610 m 220.83° 238.43° Asphalt 0 ft / 0 m 190 ft / 58 m

Approach Navaids

Runway Type Ident Frequency Range Bearing (true) Bearing (mag) Slope Elevation
06 Localiser ICG 110.30 MHz 18 nm / 33 km 41.62° 59.22° - 1,833 ft / 559 m (AMSL)
06 Glidescope ICG 110.30 MHz 10 nm / 19 km 40.84° 58.44° 3.00° 1,833 ft / 559 m (AMSL)

Popular Alternatives